# Tabular Observed and Forecast Hydrograph Information
#
# Location: Butte Creek - Durham (DRMC1)
#
# File Generation Time: 05/03/2026 at 08:12 AM PDT
# Data Interval: 1 Hour
#
# Most Recent Date & Time of Maximum Observed: 04/29/2026 at 08:00 PM PDT
# Maximum Observed Stage: 181.75 Feet
# Maximum Observed Flow: 440 cfs
#
# Earliest Date & Time of Maximum Forecast: 05/03/2026 at 09:00 AM PDT
# Maximum Forecast Stage: 181.52 Feet
# Maximum Forecast Flow: 358 cfs
#
# OBSERVED
#
# Date & Time (Local) Stage (Feet) Flow (cfs) Trend Observed Status
# ---------------------------------------------------------------------------------
04/28/2026 08 AM PDT 181.64 400 Normal
04/28/2026 09 AM PDT 181.63 396 - Normal
04/28/2026 10 AM PDT 181.60 386 - Normal
04/28/2026 11 AM PDT 181.60 386 0 Normal
04/28/2026 12 PM PDT 181.59 382 - Normal
04/28/2026 01 PM PDT 181.57 375 - Normal
04/28/2026 02 PM PDT 181.58 379 + Normal
04/28/2026 03 PM PDT 181.56 372 - Normal
04/28/2026 04 PM PDT 181.55 368 - Normal
04/28/2026 05 PM PDT 181.55 368 0 Normal
04/28/2026 06 PM PDT 181.54 365 - Normal
04/28/2026 07 PM PDT 181.54 365 0 Normal
04/28/2026 08 PM PDT 181.53 361 - Normal
04/28/2026 09 PM PDT 181.54 365 + Normal
04/28/2026 10 PM PDT 181.55 368 + Normal
04/28/2026 11 PM PDT 181.58 379 + Normal
04/29/2026 12 AM PDT 181.61 389 + Normal
04/29/2026 01 AM PDT 181.63 396 + Normal
04/29/2026 02 AM PDT 181.64 400 + Normal
04/29/2026 03 AM PDT 181.65 403 + Normal
04/29/2026 04 AM PDT 181.69 417 + Normal
04/29/2026 05 AM PDT 181.67 410 - Normal
04/29/2026 06 AM PDT 181.65 403 - Normal
04/29/2026 07 AM PDT 181.63 396 - Normal
04/29/2026 08 AM PDT 181.64 400 + Normal
04/29/2026 09 AM PDT 181.62 393 - Normal
04/29/2026 10 AM PDT 181.61 389 - Normal
04/29/2026 11 AM PDT 181.60 386 - Normal
04/29/2026 12 PM PDT 181.58 379 - Normal
04/29/2026 01 PM PDT 181.58 379 0 Normal
04/29/2026 02 PM PDT 181.57 375 - Normal
04/29/2026 03 PM PDT 181.55 368 - Normal
04/29/2026 04 PM PDT 181.56 372 + Normal
04/29/2026 05 PM PDT 181.53 361 - Normal
04/29/2026 06 PM PDT 181.32 293 - Normal
04/29/2026 07 PM PDT 181.25 272 - Normal
04/29/2026 08 PM PDT 181.75 440 + Normal
04/29/2026 09 PM PDT 181.70 421 - Normal
04/29/2026 10 PM PDT 181.59 382 - Normal
04/29/2026 11 PM PDT 181.54 365 - Normal
04/30/2026 12 AM PDT 181.53 361 - Normal
04/30/2026 01 AM PDT 181.53 361 0 Normal
04/30/2026 02 AM PDT 181.52 358 - Normal
04/30/2026 03 AM PDT 181.51 354 - Normal
04/30/2026 04 AM PDT 181.51 354 0 Normal
04/30/2026 05 AM PDT 181.52 358 + Normal
04/30/2026 06 AM PDT 181.50 351 - Normal
04/30/2026 07 AM PDT 181.50 351 0 Normal
04/30/2026 08 AM PDT 181.51 354 + Normal
04/30/2026 09 AM PDT 181.49 348 - Normal
04/30/2026 10 AM PDT 181.49 348 0 Normal
04/30/2026 11 AM PDT 181.50 351 + Normal
04/30/2026 12 PM PDT 181.48 344 - Normal
04/30/2026 01 PM PDT 181.48 344 0 Normal
04/30/2026 02 PM PDT 181.47 341 - Normal
04/30/2026 03 PM PDT 181.47 341 0 Normal
04/30/2026 04 PM PDT 181.47 341 0 Normal
04/30/2026 05 PM PDT 181.46 337 - Normal
04/30/2026 06 PM PDT 181.46 337 0 Normal
04/30/2026 07 PM PDT 181.45 334 - Normal
04/30/2026 08 PM PDT 181.46 337 + Normal
04/30/2026 09 PM PDT 181.60 386 + Normal
04/30/2026 10 PM PDT 181.62 393 + Normal
04/30/2026 11 PM PDT 181.59 382 - Normal
05/01/2026 12 AM PDT 181.59 382 0 Normal
05/01/2026 01 AM PDT 181.59 382 0 Normal
05/01/2026 02 AM PDT 181.60 386 + Normal
05/01/2026 03 AM PDT 181.60 386 0 Normal
05/01/2026 04 AM PDT 181.59 382 - Normal
05/01/2026 05 AM PDT 181.58 379 - Normal
05/01/2026 06 AM PDT 181.58 379 0 Normal
05/01/2026 07 AM PDT 181.58 379 0 Normal
05/01/2026 08 AM PDT 181.59 382 + Normal
05/01/2026 09 AM PDT 181.58 379 - Normal
05/01/2026 10 AM PDT 181.58 379 0 Normal
05/01/2026 11 AM PDT 181.58 379 0 Normal
05/01/2026 12 PM PDT 181.58 379 0 Normal
05/01/2026 01 PM PDT 181.58 379 0 Normal
05/01/2026 02 PM PDT 181.57 375 - Normal
05/01/2026 03 PM PDT 181.55 368 - Normal
05/01/2026 04 PM PDT 181.55 368 0 Normal
05/01/2026 05 PM PDT 181.55 368 0 Normal
05/01/2026 06 PM PDT 181.56 372 + Normal
05/01/2026 07 PM PDT 181.58 379 + Normal
05/01/2026 08 PM PDT 181.57 375 - Normal
05/01/2026 09 PM PDT 181.54 365 - Normal
05/01/2026 10 PM PDT 181.56 372 + Normal
05/01/2026 11 PM PDT 181.56 372 0 Normal
05/02/2026 12 AM PDT 181.56 372 0 Normal
05/02/2026 01 AM PDT 181.53 361 - Normal
05/02/2026 02 AM PDT 181.54 365 + Normal
05/02/2026 03 AM PDT 181.55 368 + Normal
05/02/2026 04 AM PDT 181.55 368 0 Normal
05/02/2026 05 AM PDT 181.58 379 + Normal
05/02/2026 06 AM PDT 181.56 372 - Normal
05/02/2026 07 AM PDT 181.53 361 - Normal
05/02/2026 08 AM PDT 181.52 358 - Normal
05/02/2026 09 AM PDT 181.55 368 + Normal
05/02/2026 10 AM PDT 181.56 372 + Normal
05/02/2026 11 AM PDT 181.55 368 - Normal
05/02/2026 12 PM PDT 181.55 368 0 Normal
05/02/2026 01 PM PDT 181.54 365 - Normal
05/02/2026 02 PM PDT 181.54 365 0 Normal
05/02/2026 03 PM PDT 181.53 361 - Normal
05/02/2026 04 PM PDT 181.55 368 + Normal
05/02/2026 05 PM PDT 181.55 368 0 Normal
05/02/2026 06 PM PDT 181.55 368 0 Normal
05/02/2026 07 PM PDT 181.56 372 + Normal
05/02/2026 08 PM PDT 181.55 368 - Normal
05/02/2026 09 PM PDT 181.55 368 0 Normal
05/02/2026 10 PM PDT 181.55 368 0 Normal
05/02/2026 11 PM PDT 181.55 368 0 Normal
05/03/2026 12 AM PDT 181.56 372 + Normal
05/03/2026 01 AM PDT 181.55 368 - Normal
05/03/2026 02 AM PDT 181.54 365 - Normal
05/03/2026 03 AM PDT 181.55 368 + Normal
05/03/2026 04 AM PDT 181.55 368 0 Normal
05/03/2026 05 AM PDT 181.53 361 - Normal
05/03/2026 06 AM PDT 181.52 358 - Normal
05/03/2026 07 AM PDT 181.53 361 + Normal
05/03/2026 08 AM PDT 181.53 361 0 Normal
#
# FORECAST
#
# Date & Time (Local) Stage (Feet) Flow (cfs) Trend Forecast Status
# ---------------------------------------------------------------------------------
05/03/2026 09 AM PDT 181.52 358 Normal
05/03/2026 10 AM PDT 181.51 354 - Normal
05/03/2026 11 AM PDT 181.51 354 0 Normal
05/03/2026 12 PM PDT 181.50 351 - Normal
05/03/2026 01 PM PDT 181.49 348 - Normal
05/03/2026 02 PM PDT 181.49 348 0 Normal
05/03/2026 03 PM PDT 181.48 344 - Normal
05/03/2026 04 PM PDT 181.47 341 - Normal
05/03/2026 05 PM PDT 181.46 337 - Normal
05/03/2026 06 PM PDT 181.46 337 0 Normal
05/03/2026 07 PM PDT 181.45 334 - Normal
05/03/2026 08 PM PDT 181.44 331 - Normal
05/03/2026 09 PM PDT 181.44 331 0 Normal
05/03/2026 10 PM PDT 181.44 331 0 Normal
05/03/2026 11 PM PDT 181.44 331 0 Normal
05/04/2026 12 AM PDT 181.44 331 0 Normal
05/04/2026 01 AM PDT 181.44 331 0 Normal
05/04/2026 02 AM PDT 181.44 331 0 Normal
05/04/2026 03 AM PDT 181.44 331 0 Normal
05/04/2026 04 AM PDT 181.44 331 0 Normal
05/04/2026 05 AM PDT 181.44 331 0 Normal
05/04/2026 06 AM PDT 181.43 328 - Normal
05/04/2026 07 AM PDT 181.43 328 0 Normal
05/04/2026 08 AM PDT 181.42 324 - Normal
05/04/2026 09 AM PDT 181.42 324 0 Normal
05/04/2026 10 AM PDT 181.41 321 - Normal
05/04/2026 11 AM PDT 181.41 321 0 Normal
05/04/2026 12 PM PDT 181.40 318 - Normal
05/04/2026 01 PM PDT 181.40 318 0 Normal
05/04/2026 02 PM PDT 181.39 315 - Normal
05/04/2026 03 PM PDT 181.39 315 0 Normal
05/04/2026 04 PM PDT 181.39 315 0 Normal
05/04/2026 05 PM PDT 181.39 315 0 Normal
05/04/2026 06 PM PDT 181.39 315 0 Normal
05/04/2026 07 PM PDT 181.40 318 + Normal
05/04/2026 08 PM PDT 181.40 318 0 Normal
05/04/2026 09 PM PDT 181.40 318 0 Normal
05/04/2026 10 PM PDT 181.41 321 + Normal
05/04/2026 11 PM PDT 181.41 321 0 Normal
05/05/2026 12 AM PDT 181.41 321 0 Normal
05/05/2026 01 AM PDT 181.42 324 + Normal
05/05/2026 02 AM PDT 181.42 324 0 Normal
05/05/2026 03 AM PDT 181.43 328 + Normal
05/05/2026 04 AM PDT 181.44 331 + Normal
05/05/2026 05 AM PDT 181.44 331 0 Normal
05/05/2026 06 AM PDT 181.45 334 + Normal
05/05/2026 07 AM PDT 181.45 334 0 Normal
05/05/2026 08 AM PDT 181.46 337 + Normal
05/05/2026 09 AM PDT 181.46 337 0 Normal
05/05/2026 10 AM PDT 181.46 337 0 Normal
05/05/2026 11 AM PDT 181.45 334 - Normal
05/05/2026 12 PM PDT 181.45 334 0 Normal
05/05/2026 01 PM PDT 181.44 331 - Normal
05/05/2026 02 PM PDT 181.44 331 0 Normal
05/05/2026 03 PM PDT 181.43 328 - Normal
05/05/2026 04 PM PDT 181.42 324 - Normal
05/05/2026 05 PM PDT 181.41 321 - Normal
05/05/2026 06 PM PDT 181.40 318 - Normal
05/05/2026 07 PM PDT 181.39 315 - Normal
05/05/2026 08 PM PDT 181.38 312 - Normal
05/05/2026 09 PM PDT 181.38 312 0 Normal
05/05/2026 10 PM PDT 181.37 308 - Normal
05/05/2026 11 PM PDT 181.36 305 - Normal
05/06/2026 12 AM PDT 181.35 302 - Normal
05/06/2026 01 AM PDT 181.34 299 - Normal
05/06/2026 02 AM PDT 181.34 299 0 Normal
05/06/2026 03 AM PDT 181.33 296 - Normal
05/06/2026 04 AM PDT 181.32 293 - Normal
05/06/2026 05 AM PDT 181.32 293 0 Normal
05/06/2026 06 AM PDT 181.31 290 - Normal
05/06/2026 07 AM PDT 181.31 290 0 Normal
05/06/2026 08 AM PDT 181.30 287 - Normal
05/06/2026 09 AM PDT 181.29 284 - Normal
05/06/2026 10 AM PDT 181.29 284 0 Normal
05/06/2026 11 AM PDT 181.28 281 - Normal
05/06/2026 12 PM PDT 181.28 281 0 Normal
05/06/2026 01 PM PDT 181.27 278 - Normal
05/06/2026 02 PM PDT 181.27 278 0 Normal
05/06/2026 03 PM PDT 181.26 275 - Normal
05/06/2026 04 PM PDT 181.26 275 0 Normal
05/06/2026 05 PM PDT 181.25 272 - Normal
05/06/2026 06 PM PDT 181.25 272 0 Normal
05/06/2026 07 PM PDT 181.24 269 - Normal
05/06/2026 08 PM PDT 181.24 269 0 Normal
05/06/2026 09 PM PDT 181.23 266 - Normal
05/06/2026 10 PM PDT 181.22 263 - Normal
05/06/2026 11 PM PDT 181.22 263 0 Normal
05/07/2026 12 AM PDT 181.21 260 - Normal
05/07/2026 01 AM PDT 181.21 260 0 Normal
05/07/2026 02 AM PDT 181.20 257 - Normal
05/07/2026 03 AM PDT 181.19 254 - Normal
05/07/2026 04 AM PDT 181.19 254 0 Normal
05/07/2026 05 AM PDT 181.18 251 - Normal
05/07/2026 06 AM PDT 181.17 249 - Normal
05/07/2026 07 AM PDT 181.16 246 - Normal
05/07/2026 08 AM PDT 181.16 246 0 Normal
05/07/2026 09 AM PDT 181.15 243 - Normal
05/07/2026 10 AM PDT 181.14 240 - Normal
05/07/2026 11 AM PDT 181.13 238 - Normal
05/07/2026 12 PM PDT 181.13 238 0 Normal
05/07/2026 01 PM PDT 181.12 235 - Normal
05/07/2026 02 PM PDT 181.12 235 0 Normal
05/07/2026 03 PM PDT 181.12 235 0 Normal
05/07/2026 04 PM PDT 181.11 233 - Normal
05/07/2026 05 PM PDT 181.11 233 0 Normal
05/07/2026 06 PM PDT 181.10 230 - Normal
05/07/2026 07 PM PDT 181.10 230 0 Normal
05/07/2026 08 PM PDT 181.09 227 - Normal
05/07/2026 09 PM PDT 181.09 227 0 Normal
05/07/2026 10 PM PDT 181.09 227 0 Normal
05/07/2026 11 PM PDT 181.08 225 - Normal
05/08/2026 12 AM PDT 181.08 225 0 Normal
05/08/2026 01 AM PDT 181.07 223 - Normal
05/08/2026 02 AM PDT 181.07 223 0 Normal
05/08/2026 03 AM PDT 181.06 220 - Normal
05/08/2026 04 AM PDT 181.06 220 0 Normal
05/08/2026 05 AM PDT 181.06 220 0 Normal
#
# NOTE 1: Stages are rounded to the nearest hundredth (.01) of a foot.
# NOTE 2: Flows are rounded to the nearest (1) cfs.
# NOTE 3: Trends are determined using hourly change in unrounded stage and flow.
# NOTE 4: Maximum Values are determined using unrounded stage and flow.
|